Details From TLPL - St. Lucia/Hewanorra Intl
To TBPB - Barbados/Grantley Adams Intl
Flight Number -
Tags decoded
Created
Modified
Stats Distance 97 nm / 179 km
Max Altitude 0 ft / 0 m
Waypoints 8
Social Downloads 3
Likes 0
Share VATSIM

Download

Looking for another format? Having issues loading an existing format? Contact us
Advertisement - Login to hide

Notes

Requested: TLPL TIBOT ANKAR BGI28 BGI09 BGI07 R1362 TBPB

Route

TLPL TIBOT ANKAR BGI28 BGI09 BGI07 R1362 TBPB

ID Type Via Altitude Latitude Longitude Leg Dist Tot Dist Heading (true) Name
O TLPL APT - 0 ft / 0 m 13.73319˚ -60.95260˚ - 0 nm - St. Lucia/Hewanorra Intl
TIBOT FIX - 0 ft / 0 m 13.56239˚ -60.58647˚ 23 nm 23 nm 116° / 116° -
ANKAR FIX - 0 ft / 0 m 13.43639˚ -60.29889˚ 18 nm 42 nm 114° / 114° -
BGI28 FIX - 0 ft / 0 m 13.06168˚ -59.73982˚ 39 nm 81 nm 124° / 125° -
BGI09 FIX - 0 ft / 0 m 13.04615˚ -59.63481˚ 6 nm 88 nm 99° / 99° -
BGI07 FIX - 0 ft / 0 m 13.05256˚ -59.60127˚ 1 nm 90 nm 79° / 79° -
R1362 FIX - 0 ft / 0 m 13.07091˚ -59.50749˚ 5 nm 95 nm 79° / 79° -
O TBPB APT - 0 ft / 0 m 13.07461˚ -59.49221˚ 0 nm 96 nm 76° / 76° Barbados/Grantley Adams Intl

Altitude Profile

Advertisement - Login to hide

TLPL

Details ICAO TLPL (UVF)
Name St. Lucia/Hewanorra Intl
Region Saint Lucia
Timezone America/St_Lucia (UTC-4.0)
Stats Elevation 14 ft / 4 m (AMSL)
Location 13.733194° -60.952599°
Runways 1
Magnetic Variation 15.092° W

METAR

TLPL 140700Z 09013KT 9999 SCT023 27/22 Q1014 NOSIG

Decode

TAF

Not found

Departure Runways

ID Width Length Bearing (true) Bearing (mag) Surface Threshold Offset Overrun Length
10 148 ft / 45 m 8,979 ft / 2,737 m 90.01° 105.10° Asphalt 0 ft / 0 m 200 ft / 61 m
28 148 ft / 45 m 8,979 ft / 2,737 m 270.01° 285.10° Asphalt 459 ft / 140 m 0 ft / 0 m

TBPB

Details ICAO TBPB (BGI)
Name Barbados/Grantley Adams Intl
Region Barbados
Timezone America/Barbados (UTC-4.0)
Stats Elevation 168 ft / 51 m (AMSL)
Location 13.074614° -59.492206°
Runways 1
Magnetic Variation 15.612° W

METAR

TBPB 140800Z 09013KT 9999 SCT020 26/23 Q1013 NOSIG

Decode

TAF

Not found

Destination Runways

ID Width Length Bearing (true) Bearing (mag) Surface Threshold Offset Overrun Length
09 148 ft / 45 m 11,924 ft / 3,635 m 75.84° 91.45° Asphalt 0 ft / 0 m 174 ft / 53 m
27 148 ft / 45 m 11,924 ft / 3,635 m 255.85° 271.46° Asphalt 0 ft / 0 m 0 ft / 0 m

Approach Navaids

Runway Type Ident Frequency Range Bearing (true) Bearing (mag) Slope Elevation
09 Localiser IBGI 110.10 MHz 18 nm / 33 km 75.97° 91.59° - 168 ft / 51 m (AMSL)
09 Glidescope IBGI 110.10 MHz 10 nm / 19 km 75.85° 91.46° 3.00° 168 ft / 51 m (AMSL)

Popular Alternatives